Location: ??
(34.9170°N, 135.5016°E)
Time: 10:37:16
(UTC+00:00)

X-37B - Pass Details

Date: 31 January 2021
Orbit: 383 x 391 km, 45.0° (Epoch: 27 February)

Event Time Altitude Azimuth Distance (km) Brightness Sun altitude
Rises 08:48:10 0° 307° (NW) 2,271 5.0 -5.2°
Reaches altitude 10° 08:50:24 10° 320° (NW) 1,416 3.8 -5.6°
Maximum altitude 08:53:14 29° 22° (NNE) 754 1.7 -6.2°
Drops below altitude 10° 08:56:04 10° 85° (E) 1,416 2.8 -6.7°
Enters shadow 08:56:25 - 88° (E) 1,546 3.0 -6.8°
